GFSMW_prec_cthk_042.txt.gz
RH
50 51 53 55 59 65 72 83 90 90 94 88 77 73 69 69 65 63 60 59 57 59 61 61 62 60 55 53 53 52 48 44 39 32 30 30 31 35 34 32 31 32 31
55 58 60 63 70 81 84 85 76 71 69 68 64 60 60 59 54 52 52 53 54 55 56 57 54 52 53 52 50 45 40 37 35 33 31 30 29 31 36 37 34 34 33
59 63 65 72 72 70 65 63 64 64 62 59 53 49 49 51 55 57 58 59 58 58 56 55 55 55 51 47 42 39 37 34 32 32 34 35 35 34 35 37 38 40 40
59 60 54 59 62 61 59 58 59 59 54 55 58 61 63 64 66 66 65 64 62 60 57 53 49 44 40 37 36 34 33 33 34 35 38 41 43 45 42 41 35 36 35
58 63 63 64 67 65 63 65 68 67 69 69 69 68 66 70 68 69 64 60 56 53 49 44 37 35 35 34 33 35 35 36 37 37 36 36 38 41 46 42 44 38 34
62 62 65 70 73 71 72 73 74 79 76 72 71 71 68 68 66 60 57 53 48 43 38 34 33 33 32 29 30 30 31 32 34 36 37 37 39 41 48 52 51 46 40
62 67 69 75 81 78 77 80 80 80 78 76 74 70 68 64 58 54 50 44 39 32 29 30 31 34 34 33 32 30 29 32 37 39 42 45 47 51 54 59 60 59 50
63 69 74 71 69 73 76 78 81 81 79 74 68 65 63 57 52 48 42 36 32 30 32 33 35 35 38 38 39 39 39 41 43 49 52 54 56 61 68 72 73 69 58
60 60 62 65 69 74 77 80 77 75 75 69 65 64 61 54 47 42 36 33 35 37 41 38 38 39 43 47 52 55 58 58 55 58 64 59 53 53 54 61 69 71 60
55 57 62 69 70 72 74 75 73 75 71 68 66 59 53 48 43 37 36 39 40 39 42 46 46 48 48 51 55 64 64 69 69 75 71 62 56 56 54 55 60 61 57
57 60 63 66 70 73 74 74 72 71 72 67 61 54 48 45 42 42 42 42 41 43 47 49 51 48 50 53 60 69 73 79 77 74 68 60 52 49 51 51 51 52 55
59 62 66 69 73 73 73 71 77 74 65 58 52 49 48 47 46 44 45 45 40 42 47 50 53 51 56 53 67 78 82 81 73 67 54 47 48 49 49 49 49 48 49
61 66 69 71 70 69 74 78 69 64 59 54 52 47 44 41 38 37 34 32 36 41 42 46 45 49 56 68 77 83 86 78 72 59 51 47 46 46 46 44 43 43 45
63 65 66 65 69 76 74 68 64 59 55 51 46 42 37 32 31 30 28 29 31 34 38 42 51 59 71 85 84 87 86 74 65 54 48 46 46 45 45 45 45 50 58
62 63 64 66 71 71 66 61 55 52 51 48 43 36 32 32 30 29 29 28 31 35 40 44 49 61 79 81 87 84 77 69 54 46 45 45 46 49 48 49 56 69 71
62 64 66 70 67 63 59 54 53 52 49 42 35 33 32 30 32 32 31 32 33 38 42 46 55 65 71 77 79 76 66 49 43 42 42 43 43 42 45 58 71 77 80
64 68 70 65 62 60 57 56 54 50 41 35 34 32 30 32 33 35 34 33 34 42 44 52 56 60 62 67 70 57 45 43 43 43 43 40 40 43 56 70 80 91 96
68 70 68 64 63 60 56 55 49 41 36 33 32 31 32 34 36 36 36 35 40 48 45 56 62 64 68 63 46 46 44 44 45 43 42 43 43 54 73 81 91 97 97
71 69 67 66 62 59 57 50 42 37 35 33 29 31 34 34 35 37 40 43 48 60 65 66 72 73 61 46 45 46 45 44 43 43 45 46 50 73 86 92 95 97 97
66 69 69 67 63 59 51 44 41 38 33 29 28 29 32 35 37 41 44 49 59 71 77 79 80 69 50 45 48 49 46 44 43 44 47 49 60 83 92 96 98 97 98
70 73 72 68 61 55 47 43 39 33 29 28 27 30 31 36 41 46 50 56 69 77 82 82 72 51 46 47 52 51 47 46 44 46 48 50 69 87 95 99 99 99 98
76 77 71 64 58 49 45 41 35 31 29 27 28 30 31 37 43 49 59 67 74 83 83 75 53 48 44 52 54 50 48 47 46 48 49 51 71 88 97 98 99 99 99
79 73 67 61 52 47 43 37 34 31 28 28 28 29 32 39 46 55 66 73 79 86 72 55 49 46 46 55 54 50 47 46 47 49 49 51 68 86 95 98 98 99 98
75 69 62 53 49 45 40 37 33 30 30 29 30 33 37 44 49 59 70 78 82 72 59 54 49 46 53 57 53 48 45 45 47 50 47 48 65 85 94 96 98 99 98
73 62 54 52 47 42 39 36 33 32 30 31 35 37 42 49 55 63 72 77 72 64 57 55 50 49 56 56 52 48 45 45 47 50 49 45 59 82 88 85 86 90 88
62 57 53 47 42 39 36 34 33 33 33 34 38 42 48 54 59 61 62 63 63 59 58 55 51 52 56 57 51 48 46 46 47 50 50 46 49 71 84 83 79 80 79

GFSMW_prec_cthk_045.txt.gz
RH
52 54 53 54 65 60 68 74 84 92 84 92 81 68 68 62 57 54 53 54 55 57 57 57 56 54 52 50 48 45 40 36 32 29 30 26 24 26 27 26 25 26 26
56 56 55 58 61 66 77 84 79 75 67 62 59 56 58 56 57 61 63 63 61 61 59 57 55 54 50 46 42 37 32 28 26 26 30 32 33 33 32 31 29 29 29
53 57 61 56 52 54 58 60 60 58 55 55 61 65 66 68 69 68 67 65 63 60 56 52 49 46 40 35 31 29 27 27 27 27 32 34 32 33 31 32 29 29 28
58 61 55 53 60 62 61 62 65 65 65 67 71 69 72 69 69 69 67 64 62 57 51 45 38 31 28 26 26 24 23 24 28 27 29 31 35 38 36 36 30 28 30
55 53 54 57 56 60 66 69 74 77 80 79 77 78 76 76 74 73 65 61 57 50 42 33 27 27 28 28 27 26 26 25 27 32 32 31 37 40 43 46 44 44 37
54 55 56 58 63 65 70 77 79 76 78 80 77 77 78 74 70 65 60 55 48 38 33 31 32 33 33 31 32 32 33 35 36 38 41 41 43 48 53 53 51 53 48
52 55 60 67 72 68 67 68 69 72 75 79 81 79 75 69 66 61 55 49 41 34 34 36 38 38 37 38 39 39 39 40 44 47 48 49 52 53 59 63 65 62 61
53 58 61 60 60 61 65 68 70 75 78 75 74 73 70 67 61 55 49 41 37 37 38 39 38 41 43 43 40 37 40 42 50 53 52 55 60 65 59 62 63 63 53
55 52 54 54 58 64 68 69 71 73 75 70 70 71 68 61 54 50 44 41 40 40 42 40 42 43 43 39 39 44 51 51 54 55 61 63 62 62 61 58 57 54 49
48 48 52 57 61 65 68 70 72 75 74 74 76 72 63 57 52 47 45 45 45 43 43 40 39 41 45 48 48 52 51 58 66 71 68 65 64 60 55 51 52 55 53
49 50 54 59 64 66 69 70 69 71 77 80 72 61 58 54 51 48 45 43 40 39 35 36 42 44 45 49 55 56 61 70 74 73 69 67 62 53 48 48 49 49 49
53 56 59 64 67 70 69 70 71 79 82 67 63 61 51 47 45 39 33 31 30 29 30 32 38 43 50 58 59 63 69 77 78 75 68 65 55 46 45 45 44 46 47
56 60 65 68 70 70 70 71 83 78 67 61 53 49 47 42 37 35 34 31 28 27 28 31 38 44 49 49 58 76 76 77 78 75 68 53 43 44 44 46 47 52 52
56 60 64 66 68 66 68 80 69 62 57 54 50 44 42 39 38 36 32 30 29 28 27 31 35 38 44 53 74 78 77 74 74 67 47 41 42 46 47 48 49 52 55
55 58 61 62 63 72 75 65 63 56 55 50 45 44 41 39 37 34 31 30 30 29 30 31 36 42 51 60 65 67 65 65 57 42 41 40 42 42 43 47 50 59 72
52 56 59 63 68 65 64 65 62 59 52 48 47 43 40 38 33 32 33 32 32 32 33 36 41 43 53 62 61 63 58 44 42 40 40 40 39 41 42 44 54 74 81
53 57 60 61 63 66 67 65 63 57 53 48 43 39 37 34 34 34 33 33 34 34 38 44 51 58 61 68 67 51 41 43 43 42 39 38 41 44 47 52 73 85 93
54 57 63 64 61 64 65 64 58 54 49 44 40 37 33 32 33 33 34 35 35 38 45 55 65 71 76 76 59 43 41 45 45 41 39 40 45 47 51 68 83 92 96
55 59 60 62 65 67 65 61 56 50 45 43 39 34 31 31 31 32 32 34 36 44 53 64 73 82 81 67 46 41 45 47 43 40 40 44 47 49 57 78 87 92 97
57 61 67 69 69 68 65 59 53 48 46 41 36 32 30 28 32 30 31 35 42 52 61 70 80 83 72 48 44 43 48 45 42 42 44 47 50 51 65 82 89 92 98
65 70 73 72 71 67 62 56 51 48 42 37 33 31 28 31 30 29 34 39 48 58 69 75 83 73 50 45 43 49 49 46 45 44 46 49 47 53 71 85 92 95 97
73 75 75 75 69 65 58 54 50 43 38 34 32 29 31 29 28 33 38 45 53 64 75 80 74 57 48 44 47 51 48 45 43 42 47 46 44 52 71 86 94 97 98
75 80 80 74 67 60 57 50 45 40 36 34 30 32 31 29 33 37 43 50 58 69 77 71 64 53 48 46 52 52 47 44 42 41 45 44 44 54 71 82 87 94 98
83 81 77 68 63 57 50 47 42 38 35 32 33 34 31 33 38 41 49 56 61 65 66 64 58 54 50 51 54 52 47 44 43 41 44 44 43 49 65 76 79 83 83
86 78 71 63 55 50 47 42 39 37 35 35 37 35 34 38 43 47 51 52 51 54 58 61 57 56 52 54 54 55 51 47 45 42 44 45 45 48 57 74 75 75 78
79 69 61 54 50 47 42 40 39 38 39 40 37 38 40 45 48 52 52 51 49 50 54 59 57 57 55 55 54 57 53 52 49 46 43 46 45 46 49 62 78 78 72

GFSMW_prec_cthk_048.txt.gz
RH
48 50 51 52 55 61 64 69 74 83 87 85 79 75 65 62 58 59 61 64 65 63 61 57 55 54 52 46 44 40 35 31 32 31 30 29 32 39 37 34 32 31 28
52 56 58 56 58 63 66 70 72 68 64 60 60 63 64 66 70 70 69 68 69 68 66 62 59 54 50 45 39 33 29 29 33 35 31 28 29 32 47 42 39 35 28
50 51 54 58 62 65 66 68 67 63 60 61 63 69 71 71 75 78 77 74 71 67 62 56 51 46 39 34 31 30 30 31 31 36 36 36 33 35 31 39 41 39 35
48 53 55 59 59 58 57 57 61 63 61 64 68 71 74 80 81 80 75 76 70 61 55 49 41 36 33 33 33 34 33 33 33 32 36 42 44 41 36 38 37 40 41
55 54 55 55 57 57 58 60 63 62 64 66 69 70 75 78 81 79 78 72 66 56 46 39 36 37 37 38 37 37 38 37 40 43 44 50 49 52 53 48 45 49 50
53 54 53 53 56 58 61 62 62 63 64 67 69 73 77 78 77 76 72 67 60 51 44 40 40 40 41 41 43 43 42 45 51 55 58 63 65 66 68 69 69 68 55
51 51 53 56 61 62 60 60 63 66 67 69 70 74 72 70 72 73 68 59 53 48 50 50 52 51 48 46 51 56 53 51 57 63 61 62 64 63 66 71 74 71 52
49 52 57 59 57 57 57 60 65 67 67 66 66 72 73 75 75 68 58 54 51 48 49 47 48 50 48 55 53 51 54 60 64 66 65 68 64 72 74 72 72 63 52
49 54 55 53 55 57 59 63 66 66 64 66 67 70 73 74 64 58 52 52 50 51 49 48 48 46 50 53 51 53 61 57 61 62 68 67 71 69 70 71 70 66 50
50 54 52 52 56 60 64 65 66 65 65 64 69 75 76 62 54 52 50 48 44 41 42 41 40 46 46 51 54 59 62 62 58 61 65 66 72 72 68 68 65 60 57
48 51 51 54 58 62 66 66 67 65 64 71 81 72 61 52 52 50 46 42 39 39 37 37 37 38 39 49 54 61 60 48 61 66 68 71 74 73 70 59 54 50 52
46 49 52 55 57 60 65 67 69 70 73 82 64 55 52 52 49 46 44 41 38 36 34 32 32 38 39 45 37 39 43 56 71 73 72 73 72 68 53 51 52 56 56
46 49 52 56 60 63 65 66 72 72 73 65 59 57 53 50 49 48 45 41 38 36 34 35 39 39 40 37 38 46 56 71 77 73 70 68 61 50 51 51 52 55 54
46 50 52 58 62 63 64 66 70 73 62 60 59 55 53 54 51 47 44 40 39 37 35 37 35 33 34 37 41 50 63 68 68 66 62 50 48 48 48 46 48 51 53
46 48 52 57 59 59 59 73 65 59 63 59 56 55 57 53 49 45 43 41 38 38 36 35 35 34 38 45 54 60 69 71 65 50 46 46 44 40 39 43 44 50 52
43 46 52 56 57 59 66 61 65 58 56 54 55 57 54 50 47 43 40 38 42 41 41 42 43 45 50 52 61 68 78 68 49 44 46 46 43 43 42 44 46 50 62
43 48 52 53 58 59 62 60 61 59 55 57 59 55 51 46 43 39 39 43 41 41 42 42 47 53 59 63 71 79 71 47 44 45 46 44 44 45 49 50 50 61 82
44 49 52 54 58 60 64 68 63 59 57 58 54 52 49 43 42 39 42 42 40 41 37 42 52 62 66 72 80 71 48 46 47 47 44 43 44 49 46 49 56 74 88
48 51 54 57 59 67 71 65 62 61 61 58 56 51 45 44 40 41 44 42 40 41 42 46 56 68 72 78 75 49 47 47 50 46 45 42 44 47 48 51 62 83 92
50 53 58 62 71 72 67 64 66 63 61 58 50 47 46 42 40 39 40 41 40 40 45 52 61 70 77 77 53 47 47 51 47 44 46 44 43 44 50 55 70 86 94
55 61 67 73 77 74 70 70 67 63 58 52 48 46 42 40 39 34 37 39 38 40 48 53 63 73 72 62 50 46 48 52 46 43 42 44 45 40 47 58 75 87 91
67 69 78 79 81 77 70 68 63 59 54 48 45 41 42 41 39 38 39 39 43 46 52 58 66 68 63 56 50 47 53 49 45 44 43 43 40 39 47 58 68 76 88
74 83 87 84 78 71 66 61 59 52 47 43 42 44 42 41 41 37 36 41 47 51 55 57 60 62 61 61 51 50 54 49 46 46 41 39 39 38 47 56 61 78 88
86 92 87 82 72 63 59 57 51 48 45 46 45 39 38 41 38 38 41 45 52 53 53 52 57 60 59 62 56 54 57 54 50 49 47 41 41 41 46 55 65 78 80
95 91 82 72 63 61 59 53 49 46 46 46 43 41 41 38 38 42 47 54 54 53 50 49 53 59 62 63 57 56 56 57 54 51 51 48 48 47 48 53 58 71 84
88 81 72 65 65 58 52 49 46 47 46 44 42 41 38 40 44 48 51 54 52 52 53 52 52 57 63 63 58 56 52 56 54 55 56 53 50 49 49 52 56 60 75

GFSMW_prec_cthk_054.txt.gz
RH
46 47 49 52 57 59 55 58 68 64 70 75 76 65 51 53 53 55 58 56 54 58 58 59 62 61 61 56 51 49 45 41 39 37 35 33 31 35 33 38 43 46 47
48 49 48 51 55 56 52 62 65 68 71 70 60 52 53 53 53 54 52 57 57 61 65 65 63 59 57 54 51 46 42 41 41 38 36 36 33 31 32 34 36 43 47
48 51 53 53 56 58 65 66 63 66 62 66 59 55 54 54 54 54 55 60 65 66 63 61 60 55 51 48 47 46 47 44 40 41 41 38 38 36 35 31 32 34 41
48 51 55 53 55 56 58 62 61 59 63 61 56 57 56 56 60 64 69 67 67 65 65 62 55 52 50 48 48 48 47 45 44 44 44 42 43 45 43 43 41 43 40
49 52 52 50 51 54 58 61 58 61 58 58 57 56 61 64 65 68 67 70 68 67 61 58 55 51 50 50 51 56 55 51 48 52 53 50 49 52 57 52 51 50 54
47 48 49 52 54 52 53 55 58 56 55 52 55 59 61 63 63 63 62 65 69 71 63 58 58 54 53 51 50 53 49 45 44 57 62 61 62 65 67 66 63 57 48
45 44 44 48 49 50 52 53 53 52 50 52 55 58 60 63 62 63 66 70 76 65 63 58 55 54 52 48 47 50 54 52 40 55 63 67 66 71 73 73 66 59 47
45 43 44 47 50 50 50 51 51 50 52 55 56 57 60 61 64 67 66 71 63 59 57 56 54 52 49 47 46 46 50 50 51 56 70 68 70 73 71 73 71 59 48
41 41 43 46 47 50 50 50 51 52 51 54 57 60 62 63 74 72 66 63 60 57 52 49 48 49 46 44 43 42 49 51 48 54 69 67 65 72 73 71 73 67 55
36 37 41 43 48 49 50 49 53 53 52 56 60 61 64 72 80 74 57 57 56 52 50 52 52 49 46 46 42 42 46 47 45 52 58 57 58 67 63 66 70 70 66
34 37 41 44 48 50 49 50 54 56 58 60 63 65 66 79 76 55 57 56 54 54 55 55 51 48 48 47 47 48 47 45 42 43 41 39 50 60 68 72 74 64 56
35 38 43 44 47 49 53 55 60 59 58 63 67 67 64 61 57 60 56 56 56 57 57 54 51 51 51 47 44 41 40 38 34 35 41 51 60 68 73 70 63 53 49
40 44 47 46 48 50 54 56 56 56 60 63 64 64 65 57 58 56 59 58 59 60 56 51 53 52 48 42 37 37 35 34 35 44 50 59 63 68 75 55 46 44 42
43 46 44 45 45 49 51 54 58 61 60 60 64 65 58 57 57 60 59 62 64 60 56 55 59 56 51 43 41 39 41 41 47 57 64 68 71 71 48 46 43 37 35
40 42 43 43 45 47 50 55 56 59 59 62 63 62 58 60 63 61 64 66 63 60 60 64 59 53 46 46 43 46 49 52 60 67 70 75 66 47 44 44 40 37 38
39 40 42 45 48 49 52 53 56 58 56 63 61 59 62 66 63 70 64 62 66 61 63 62 53 48 43 45 44 51 55 57 66 70 75 64 48 49 48 44 39 40 40
40 43 47 50 50 52 53 54 57 55 62 64 65 65 69 73 74 68 65 63 61 61 62 57 50 43 42 39 42 54 62 63 69 74 63 52 52 49 47 42 39 37 36
42 45 47 50 52 51 52 54 56 57 66 71 72 77 78 74 69 66 66 64 60 55 54 50 45 40 41 41 47 61 65 67 72 61 52 54 55 51 45 39 36 34 37
40 44 46 48 49 51 54 59 62 70 68 76 86 78 77 73 70 66 61 54 45 45 46 44 41 40 41 45 55 60 64 70 57 48 52 56 56 48 44 41 36 32 37
42 45 48 51 54 55 60 65 69 76 83 83 82 77 73 69 64 59 53 47 44 42 46 42 41 39 44 49 55 61 61 59 53 48 55 52 55 50 45 42 36 33 39
47 51 53 57 59 61 63 70 85 84 81 84 76 71 66 60 55 49 47 45 45 46 43 40 39 42 48 50 55 56 56 55 52 54 55 55 54 50 47 41 37 37 39
52 55 59 62 63 68 82 88 88 88 82 73 63 56 53 46 43 42 42 44 46 43 41 40 41 46 47 51 53 57 56 55 56 54 53 54 55 51 46 45 41 42 43
58 63 64 71 82 91 92 89 84 76 65 58 55 51 44 44 36 34 33 36 39 40 41 42 47 52 54 55 55 58 61 61 59 58 55 53 54 52 51 50 47 46 45
64 73 82 91 93 93 87 80 73 64 56 50 44 42 42 38 36 32 30 32 39 46 46 51 56 61 63 63 62 63 63 68 66 63 60 56 53 57 56 56 54 52 50
80 90 94 94 89 83 72 60 55 51 45 42 43 41 40 38 34 31 32 36 41 50 54 60 66 70 69 64 67 70 70 68 70 72 66 59 54 59 62 62 60 57 53
91 90 86 80 69 62 56 53 51 48 45 42 38 34 33 33 34 35 35 38 42 47 55 61 67 72 78 74 70 70 70 70 72 68 63 62 57 60 68 68 67 63 58

GFSMW_prec_cthk_057.txt.gz
RH
35 38 42 41 41 44 50 52 58 70 64 65 66 65 60 50 51 52 50 51 54 54 52 50 51 52 52 49 44 42 37 35 35 35 35 34 33 32 33 33 33 38 43
32 37 41 46 43 42 46 56 67 67 66 62 65 54 48 49 49 48 48 51 49 49 51 54 55 52 52 48 43 39 38 38 41 40 36 34 33 33 33 31 31 34 37
33 35 40 40 43 48 52 56 55 59 58 60 54 49 50 48 45 47 47 49 52 54 58 57 56 55 53 48 43 41 41 43 43 42 40 38 38 36 34 33 31 32 33
40 40 41 43 46 49 52 54 58 58 57 53 55 50 46 45 47 50 52 55 54 57 58 59 61 59 55 56 54 46 45 45 45 44 44 41 42 43 42 43 40 39 36
42 45 45 47 51 52 53 52 51 48 53 53 51 49 47 49 50 53 57 58 60 58 61 62 62 58 53 50 47 45 46 48 46 47 45 43 40 46 50 46 46 46 48
55 55 53 48 45 45 48 50 49 53 53 53 51 50 52 55 58 62 64 64 64 64 63 62 57 54 51 50 49 46 46 45 45 45 46 46 47 51 58 56 54 54 52
52 50 48 47 43 44 48 49 50 51 53 50 48 50 54 58 61 64 65 65 68 69 73 61 54 53 52 50 45 47 47 48 50 46 44 47 49 59 64 67 64 56 48
40 44 44 41 42 44 45 48 49 50 49 48 50 54 58 62 66 66 64 70 76 76 66 52 52 51 48 48 45 44 41 41 43 47 50 51 50 57 64 66 65 57 47
37 38 38 37 40 42 45 49 50 49 46 46 50 56 63 64 62 62 63 79 83 67 52 54 51 49 48 49 46 43 42 44 45 48 48 50 45 51 56 63 62 65 54
36 37 36 35 36 40 45 50 52 50 49 48 54 62 62 64 68 70 67 69 56 50 55 53 55 55 52 50 48 46 47 48 48 48 47 43 45 47 44 47 56 66 75
34 37 36 38 41 43 44 46 51 56 56 59 64 66 65 67 69 69 72 62 51 55 56 58 59 59 56 52 51 50 50 52 53 52 49 42 41 43 52 58 67 71 77
36 38 39 42 45 47 50 51 53 55 60 67 70 68 66 66 73 70 64 54 55 57 59 63 62 59 56 56 54 52 48 41 39 36 36 38 44 50 55 65 70 78 71
40 42 45 47 51 55 56 53 56 64 70 75 71 67 66 64 68 68 55 58 58 61 69 64 62 63 62 58 56 52 43 40 39 37 39 47 54 58 63 70 67 48 45
42 45 49 52 57 62 61 65 68 70 69 67 63 62 62 68 66 58 58 59 67 71 69 68 64 64 59 59 57 48 41 41 42 42 48 55 59 62 68 59 48 44 41
47 50 52 58 71 68 65 60 57 60 63 61 60 60 65 67 60 59 66 69 75 72 72 68 64 61 58 58 52 43 42 48 49 54 56 61 68 69 61 48 47 45 42
51 53 57 61 53 52 52 50 53 58 60 60 60 63 69 62 69 73 80 77 75 72 66 64 61 58 58 51 41 39 41 44 58 61 63 68 74 61 48 50 49 48 44
43 45 49 50 45 46 48 51 54 55 57 62 65 65 68 76 83 86 80 75 66 59 58 57 54 52 46 42 34 37 40 48 60 64 69 71 57 51 53 51 51 46 40
39 43 45 47 50 52 54 54 55 58 62 65 65 75 89 92 85 75 65 56 52 48 48 49 49 41 39 36 33 40 48 56 60 63 67 51 53 54 52 51 48 44 40
39 43 45 47 49 52 54 56 60 64 64 66 80 92 90 78 68 58 53 52 50 44 41 36 38 36 32 36 38 44 52 55 61 61 57 50 48 53 51 52 48 43 39
41 41 43 46 49 55 60 65 67 69 77 85 94 83 77 66 60 56 52 48 45 42 37 36 34 36 37 36 42 50 53 56 58 56 52 51 51 53 53 53 49 43 40
41 44 49 53 58 62 65 69 76 84 93 90 83 76 67 57 52 48 45 44 40 39 37 34 37 40 42 41 44 52 55 56 56 55 53 54 52 54 54 55 51 47 44
48 52 56 59 63 67 73 82 90 93 87 80 70 61 52 49 43 42 36 34 34 33 33 34 36 41 43 48 52 56 59 60 59 58 59 59 54 55 57 56 55 53 50
58 60 64 67 72 80 88 94 88 81 71 60 52 46 42 42 43 39 34 31 29 30 34 36 38 42 50 56 61 63 63 61 63 62 66 65 61 61 56 55 58 59 57
65 67 71 78 85 91 87 78 69 59 53 48 46 43 42 40 36 33 31 32 32 33 37 39 42 47 52 58 65 71 72 67 69 70 70 67 68 67 60 56 60 64 64
70 79 84 86 83 78 72 62 58 54 49 46 42 39 35 33 30 31 34 37 36 40 39 40 46 50 53 61 66 71 74 72 72 74 76 74 71 66 61 58 60 67 68
82 81 81 79 72 65 58 57 52 48 42 37 33 31 32 31 32 37 39 40 37 40 41 43 46 48 58 65 70 74 77 82 80 79 80 76 74 68 63 61 61 67 72

GFSMW_prec_cthk_060.txt.gz
RH
34 34 36 36 43 45 47 49 50 60 70 69 61 58 60 62 57 51 46 45 47 47 48 49 49 48 49 49 45 43 41 39 40 38 36 35 37 37 37 36 35 36 35
40 38 39 40 40 41 46 51 63 63 60 59 58 62 65 58 52 50 46 47 48 48 47 49 50 52 52 51 52 50 45 43 41 39 38 38 40 41 39 38 38 35 34
46 43 45 43 43 45 47 51 54 57 59 61 63 64 55 49 50 46 45 43 44 45 48 50 51 53 55 57 53 46 43 42 43 43 43 45 46 42 40 34 33 35 36
45 46 46 46 47 49 51 54 62 65 61 62 63 52 46 47 42 42 43 46 49 50 50 52 55 57 59 55 48 47 46 47 46 43 47 49 46 42 41 40 42 41 42
44 49 51 52 54 53 54 65 67 61 60 60 54 54 48 42 42 44 47 51 52 52 52 55 58 62 64 54 47 46 51 50 43 42 44 44 41 41 40 39 41 46 48
46 52 52 55 56 55 60 60 56 56 57 53 53 48 42 42 45 49 53 55 58 62 63 64 71 71 63 53 47 51 50 42 40 42 44 45 45 43 44 44 42 45 50
44 47 50 63 55 54 54 49 52 55 50 50 48 47 46 48 53 56 58 64 65 63 58 71 87 73 58 47 48 47 44 41 43 43 43 46 46 48 50 50 45 55 55
45 48 51 53 53 52 47 46 49 50 48 48 50 51 53 55 60 60 72 73 71 72 71 79 69 59 47 47 49 49 46 47 48 46 47 48 50 52 53 48 53 49 51
43 45 44 46 48 46 45 45 48 48 49 51 53 55 59 63 64 66 64 69 90 82 68 67 63 51 46 52 53 52 52 53 53 51 51 52 52 51 46 45 48 43 40
38 38 38 41 39 38 40 42 47 51 53 55 57 60 67 67 74 72 64 70 73 79 62 60 55 49 57 61 58 53 56 57 54 53 52 54 52 56 54 45 46 50 53
32 32 33 34 35 38 41 44 45 48 50 53 58 67 77 75 94 87 80 67 64 63 64 60 55 62 66 68 60 61 61 56 56 53 46 43 44 44 43 44 51 61 65
36 33 31 36 38 38 41 42 46 51 55 61 73 78 80 80 96 77 70 77 60 60 60 61 62 68 72 66 61 63 63 60 57 46 39 40 41 40 45 51 60 65 68
39 40 43 45 44 42 45 57 61 70 72 80 83 84 84 75 70 67 68 68 59 60 57 62 74 77 69 62 63 60 59 56 47 41 42 41 41 45 52 61 67 69 60
42 45 51 50 52 54 59 70 86 84 83 85 79 70 66 64 61 69 68 60 57 62 77 79 73 65 56 57 58 56 54 46 40 38 42 47 52 55 60 67 73 60 50
47 50 51 62 62 72 76 82 82 79 75 67 60 59 59 59 66 70 64 62 80 85 76 65 60 58 55 53 52 51 49 40 36 40 44 50 58 61 66 73 61 49 50
45 50 63 62 70 74 76 76 76 62 54 54 56 58 62 66 66 66 77 89 83 71 63 62 55 51 50 50 47 49 40 33 36 39 47 56 63 66 72 59 49 54 52
44 48 55 56 58 61 66 63 56 49 53 56 59 66 67 67 74 89 83 76 69 62 56 53 48 46 43 41 43 40 36 37 40 46 52 56 61 67 57 51 52 55 54
45 48 50 54 56 55 54 52 53 58 60 66 69 71 74 83 89 79 75 63 59 53 48 42 40 34 34 38 37 37 37 37 45 51 55 58 60 61 55 51 56 53 54
39 41 45 46 48 48 50 54 59 63 68 68 69 78 86 85 80 73 63 56 51 45 41 36 32 33 32 35 37 38 36 41 50 53 56 58 58 57 54 52 56 52 54
39 42 45 45 45 51 57 62 66 67 69 73 80 92 83 80 73 60 52 49 42 40 39 34 33 31 34 38 39 37 39 43 51 55 57 59 54 52 55 52 55 54 53
41 43 44 48 54 59 63 66 70 73 79 88 93 85 78 67 55 47 45 42 40 34 31 28 30 37 38 39 38 39 42 46 54 58 59 62 60 57 58 56 55 55 55
44 48 53 58 63 66 68 73 78 89 95 89 81 69 55 46 44 45 41 35 29 29 29 28 30 37 38 41 43 45 48 51 56 61 63 65 67 65 62 59 57 56 57
53 57 62 66 69 74 83 91 89 88 80 68 55 51 49 42 35 30 28 26 31 31 32 32 34 32 34 41 48 51 56 61 63 71 72 71 71 71 68 70 68 61 60
59 63 68 73 78 84 81 76 72 65 57 52 52 44 33 27 30 28 26 30 34 36 39 42 39 34 33 37 44 51 56 63 67 73 77 79 80 77 74 75 69 63 62
66 73 78 81 76 72 68 66 62 57 51 42 32 28 28 30 29 30 34 37 36 45 53 52 45 41 38 42 47 52 57 65 70 72 77 81 87 84 81 77 70 65 64
78 79 76 71 71 69 63 55 44 38 31 27 27 29 33 36 36 39 40 44 50 53 59 60 61 57 55 54 57 57 58 66 74 74 82 88 89 89 83 79 70 66 65

GFSMW_prec_cthk_063.txt.gz
RH
38 44 43 43 45 49 49 46 44 51 62 68 65 61 62 63 59 60 56 51 47 47 45 45 45 45 46 48 47 47 44 41 41 42 42 40 40 41 40 39 38 38 39
38 38 41 44 47 49 51 53 53 61 62 60 60 58 62 62 63 58 52 48 45 45 42 42 45 46 46 46 47 47 47 46 45 43 41 42 44 43 44 44 47 44 42
37 34 37 40 41 45 48 52 55 61 61 63 64 68 63 64 61 52 47 45 45 42 46 50 47 46 46 49 53 57 55 53 51 46 48 47 45 43 44 46 46 44 40
42 41 43 46 44 45 49 52 55 64 71 65 71 68 64 60 50 47 44 43 45 50 52 50 50 51 55 61 67 66 58 53 49 47 48 47 47 49 49 48 49 45 41
41 44 45 47 50 56 58 59 68 71 65 63 68 66 60 47 44 44 44 48 53 52 51 52 58 54 53 65 68 64 62 52 46 49 46 46 49 53 53 50 48 47 44
42 42 49 47 51 61 66 71 73 63 62 64 67 58 53 47 46 46 49 52 52 57 64 63 71 75 77 67 63 63 58 45 46 45 47 50 51 51 54 53 50 49 47
42 42 47 53 62 73 69 66 66 59 59 62 55 57 55 49 49 50 52 56 56 68 84 63 82 90 82 66 57 55 43 44 46 48 51 53 55 58 56 56 53 50 46
44 49 53 60 69 73 63 58 54 50 54 53 58 56 51 51 54 56 60 73 74 84 84 78 72 66 64 60 57 52 44 46 51 57 60 58 58 58 59 58 55 53 54
35 42 46 54 60 54 55 48 43 46 49 51 52 53 56 59 60 66 78 74 90 96 97 82 71 56 55 58 55 49 54 63 65 63 59 58 54 53 52 53 47 57 48
32 35 42 48 49 46 43 40 42 44 47 49 50 56 66 67 71 75 78 83 90 96 89 65 67 63 54 58 58 68 69 67 63 58 56 52 44 42 42 43 42 41 45
34 35 38 43 40 41 40 40 43 44 44 47 54 62 70 72 75 75 88 96 87 79 68 61 62 59 61 67 77 73 62 57 58 56 52 45 40 38 37 37 39 45 50
41 40 41 40 43 44 48 46 48 53 58 64 69 73 77 80 77 86 83 77 76 66 64 64 62 61 74 79 65 58 59 58 58 55 47 38 38 36 37 42 49 54 58
42 44 45 46 47 52 55 53 53 60 73 81 83 86 88 79 81 77 74 66 61 65 65 65 70 77 69 66 64 56 56 55 52 47 40 36 35 37 43 50 58 62 66
37 41 46 50 55 63 71 68 70 75 88 89 87 88 85 81 72 60 60 64 69 66 67 77 76 71 65 59 57 54 50 48 44 41 36 33 34 41 48 58 63 69 73
40 43 47 54 59 68 68 76 79 80 87 87 88 80 69 61 56 58 67 69 67 77 83 78 70 62 56 52 49 45 43 43 42 36 32 32 36 44 54 64 68 72 59
41 42 47 51 58 70 74 71 74 87 90 88 76 66 60 59 63 67 69 70 86 84 76 68 60 53 49 43 38 38 39 41 34 32 32 35 42 50 57 62 65 58 54
40 42 45 52 56 59 61 78 85 85 76 66 60 59 62 67 67 69 78 89 79 73 66 60 52 45 39 36 32 35 37 36 34 32 36 42 46 51 56 61 62 57 57
42 43 44 51 54 57 67 66 60 59 57 58 61 65 71 72 77 85 90 79 71 66 59 47 38 37 37 29 29 34 37 39 35 34 40 47 51 55 58 62 60 57 58
38 41 44 47 51 53 52 53 51 54 59 65 68 72 75 83 93 86 83 74 62 51 42 36 36 36 23 28 32 35 39 40 36 38 45 51 55 58 60 59 57 59 55
36 37 42 48 52 51 50 51 57 63 68 70 75 80 84 95 87 80 68 55 44 39 35 28 26 24 25 29 33 38 44 41 40 44 47 54 57 62 64 61 60 60 56
38 41 44 47 48 50 55 61 66 68 71 75 82 91 90 84 73 57 48 41 37 29 23 24 24 27 28 28 34 43 46 42 45 48 51 56 60 65 69 68 66 63 62
40 42 44 48 52 57 61 64 67 74 79 87 90 85 74 61 48 41 34 26 22 23 24 24 26 32 32 36 40 41 42 46 48 51 58 67 71 73 75 75 73 68 67
45 48 52 57 60 62 66 76 80 84 83 79 71 64 51 42 35 26 24 23 26 27 27 30 33 36 43 47 45 41 40 45 50 53 60 70 75 79 81 80 81 80 76
53 56 59 62 67 75 80 80 79 75 74 67 56 44 36 28 25 25 26 28 31 35 38 42 46 44 45 49 52 50 48 49 56 62 64 69 77 82 86 86 85 86 84
62 64 67 76 81 78 76 74 73 66 59 46 35 29 25 24 24 24 27 31 32 41 48 50 54 50 49 53 61 69 65 62 64 67 67 73 79 83 88 90 91 89 87
69 76 80 79 76 74 75 70 60 47 37 31 26 22 20 20 20 20 19 24 26 28 32 35 42 45 49 59 74 80 77 75 76 73 68 74 81 86 90 93 98 94 87

GFSMW_prec_cthk_069.txt.gz
RH
47 51 53 53 53 56 60 62 63 63 59 59 63 65 68 69 72 78 66 60 55 54 53 47 44 44 44 45 45 45 44 44 44 44 48 46 45 41 39 38 40 39 39
47 46 47 48 48 48 50 52 55 59 61 57 59 63 62 64 70 69 61 59 55 51 47 45 44 44 46 45 48 51 50 55 57 62 57 48 44 42 42 42 42 45 45
39 40 41 42 43 44 46 47 48 50 56 58 57 62 66 76 78 74 67 59 51 48 45 44 45 48 49 50 54 57 57 61 60 61 54 47 44 44 45 42 46 51 53
44 41 41 42 42 42 44 47 51 53 54 57 61 63 75 83 89 83 68 56 51 47 45 44 52 58 60 59 68 70 67 69 64 58 50 43 42 46 47 52 58 52 53
49 46 45 47 51 53 50 52 55 57 59 66 74 71 78 91 93 88 67 55 53 47 46 51 60 68 72 72 81 78 75 74 64 51 45 44 44 47 56 62 62 60 57
54 53 52 55 56 57 59 59 66 63 68 78 75 74 78 93 93 78 59 62 58 51 51 61 72 73 75 77 86 84 77 68 54 46 48 48 56 63 63 57 51 48 44
50 51 55 57 53 57 59 61 70 68 72 80 82 69 68 86 88 65 58 69 61 56 66 75 78 78 78 90 90 85 73 62 48 50 53 60 63 59 53 46 41 41 42
42 45 48 52 51 54 57 67 74 74 74 62 54 56 67 80 78 59 67 58 59 68 75 79 81 85 87 92 76 62 56 56 54 61 67 65 59 52 46 42 37 31 32
35 35 39 42 44 49 57 68 67 64 58 54 49 56 72 71 65 78 66 64 72 78 79 84 86 92 90 72 60 55 60 61 66 69 63 60 56 50 40 29 27 31 32
32 28 29 33 38 44 47 59 63 50 53 50 48 57 65 64 72 70 74 79 87 90 93 87 91 97 79 58 63 66 65 68 72 65 63 60 51 39 30 27 27 30 35
26 26 26 27 31 36 41 48 52 58 56 48 50 56 58 62 71 81 86 91 92 95 97 95 90 72 61 69 70 68 72 74 69 64 59 49 38 34 28 25 27 32 37
31 31 35 40 38 42 47 50 62 61 53 51 58 63 66 72 84 89 92 92 95 96 94 81 68 69 69 72 72 75 75 69 64 57 45 37 35 29 26 27 32 39 44
31 31 31 35 45 49 52 56 61 67 67 72 77 82 88 92 93 95 98 90 93 88 83 70 72 69 74 75 76 76 68 63 53 40 35 31 28 26 28 34 37 43 45
29 32 35 35 39 40 47 55 63 70 78 86 88 92 94 95 93 94 97 87 83 83 79 70 68 77 80 80 75 67 64 49 31 26 24 26 26 26 31 38 41 44 48
33 34 38 41 44 50 54 64 71 76 80 85 87 92 93 90 96 97 92 80 81 79 65 71 79 80 75 73 67 60 41 26 19 19 22 25 26 29 34 38 46 50 49
31 36 41 48 53 59 64 68 74 77 75 82 89 78 78 99 92 76 70 79 73 68 79 81 82 75 74 63 49 30 21 18 17 19 23 26 30 33 37 42 48 52 52
28 35 40 47 54 56 59 64 70 66 64 69 66 66 68 67 58 60 71 64 72 79 79 78 74 67 55 39 24 20 18 17 17 22 26 29 34 40 44 46 49 49 51
35 39 41 45 50 55 60 63 63 61 59 61 63 66 61 60 63 72 69 81 83 78 75 70 58 50 33 22 19 18 18 18 20 23 29 37 41 45 47 47 47 50 52
35 35 37 41 46 50 52 54 55 53 55 60 61 62 64 64 70 77 78 77 74 70 61 54 43 28 21 19 19 20 21 22 25 30 35 40 40 42 46 46 47 53 56
36 37 38 38 39 41 43 46 49 53 56 58 60 62 68 74 74 76 74 68 62 57 49 37 27 24 23 23 25 29 34 36 38 35 34 35 36 39 47 51 55 58 69
43 39 36 36 39 43 46 49 51 55 60 62 66 67 69 77 74 70 62 61 53 44 34 27 24 23 23 24 28 32 37 36 36 40 36 31 40 45 52 60 62 68 74
39 38 39 42 44 47 50 52 58 62 64 63 69 78 76 68 62 60 56 49 42 33 27 23 20 17 15 14 13 13 16 27 34 40 41 50 48 59 64 70 72 76 79
37 37 40 40 44 49 53 55 60 64 71 77 79 67 63 62 58 51 46 39 29 22 18 16 14 13 14 18 18 17 17 15 22 28 32 50 55 70 76 81 82 84 84
36 38 41 46 52 56 58 60 68 75 77 69 66 65 61 54 48 42 35 26 20 19 19 19 17 14 17 20 20 21 22 23 28 29 31 48 49 76 88 97 90 86 88
42 45 50 55 59 62 66 72 78 74 69 68 63 57 51 46 42 35 25 22 22 19 17 16 17 19 20 22 24 28 29 32 35 35 35 51 56 76 93 98 92 90 86
52 53 57 63 69 74 75 76 72 67 64 60 56 50 46 42 33 26 25 23 19 16 16 18 19 22 24 25 27 29 35 42 48 44 51 66 70 89 97 98 97 93 88

GFSMW_prec_cthk_072.txt.gz
RH
57 60 65 61 63 65 66 69 70 67 63 55 57 61 61 67 71 76 84 88 70 58 51 53 47 42 41 40 41 42 45 47 49 50 50 49 48 46 45 45 42 44 44
53 52 55 58 61 62 62 64 67 71 66 65 62 64 65 69 75 79 85 74 61 58 55 48 42 41 40 42 45 50 54 54 54 57 56 54 52 49 49 46 48 49 49
45 47 48 48 48 49 53 59 65 69 71 67 61 66 68 68 68 80 82 76 68 59 50 44 42 41 43 49 57 58 62 63 68 65 60 56 52 46 46 50 53 54 58
41 40 41 43 44 46 50 51 56 58 58 64 64 62 68 73 78 85 88 83 74 61 49 46 44 45 51 60 64 67 72 74 72 70 65 61 50 50 48 51 55 58 58
43 41 41 43 45 47 49 51 53 55 57 57 61 66 72 75 82 92 95 92 75 61 57 54 51 51 62 70 73 76 76 80 79 65 55 49 53 56 58 59 60 57 55
50 48 47 49 51 53 56 61 60 64 66 64 67 75 81 81 81 86 91 91 69 58 63 63 57 60 72 75 80 83 86 84 67 60 50 54 57 59 61 58 54 49 41
52 57 56 54 51 53 56 61 66 65 72 71 80 89 85 82 77 75 89 88 70 59 66 62 67 74 77 78 80 88 90 79 69 56 55 60 62 65 62 56 50 39 30
44 53 57 58 57 57 55 58 60 67 74 75 80 82 69 64 61 71 84 76 67 75 68 72 76 77 81 87 85 88 86 77 63 59 62 64 67 62 61 53 39 31 27
41 44 51 55 56 58 54 55 63 67 72 74 72 64 60 58 61 75 82 72 76 76 74 79 82 89 91 93 89 76 75 66 64 64 67 65 63 63 56 43 34 27 26
39 39 41 43 45 49 53 52 61 63 62 65 53 53 54 59 65 74 77 77 83 83 87 92 95 97 97 95 79 70 66 64 66 70 68 64 66 58 46 37 31 29 33
35 36 33 32 35 39 44 48 50 58 66 57 59 63 66 68 73 80 85 88 86 93 97 97 97 97 91 77 71 70 68 69 72 70 66 63 53 44 36 34 34 36 40
31 28 31 31 32 38 42 44 50 58 64 69 66 64 66 72 78 85 90 94 98 99 97 97 95 94 86 75 77 75 72 74 73 69 64 51 42 35 32 34 36 40 42
31 29 32 34 38 44 51 55 60 65 65 67 65 67 76 84 92 94 94 98 97 95 98 98 93 86 86 79 77 77 76 72 67 59 42 35 33 31 31 34 38 42 46
29 31 31 35 39 43 46 49 52 52 55 68 75 83 88 84 89 93 98 89 95 98 94 94 88 85 74 73 77 73 67 63 51 33 27 25 29 30 30 33 39 43 46
25 29 34 37 39 45 48 50 48 51 64 74 77 83 83 83 92 88 84 89 95 91 90 87 82 77 76 77 69 61 56 46 32 26 25 29 28 24 25 29 35 45 54
24 27 33 39 47 50 53 54 57 66 68 72 80 77 69 71 73 70 68 80 79 79 77 71 72 74 72 64 54 50 40 30 26 24 28 30 32 34 33 34 36 38 44
29 30 30 38 46 56 61 67 61 61 66 69 72 68 63 65 68 65 63 62 66 69 69 70 69 65 60 56 47 37 26 24 24 23 28 32 34 39 41 40 38 35 35
30 34 36 41 49 55 62 69 70 70 70 67 64 63 64 64 65 64 61 69 75 75 74 70 60 59 56 44 36 26 24 25 25 30 34 34 33 38 39 40 42 43 47
37 39 41 45 50 54 57 60 62 59 59 58 61 64 60 61 62 65 76 76 74 70 60 58 58 53 47 38 28 28 29 30 28 31 30 30 37 40 41 42 41 44 52
39 39 40 41 45 47 47 49 51 50 51 53 54 56 59 62 72 73 74 74 62 57 60 56 51 44 35 31 28 26 25 21 22 23 29 31 32 33 51 54 50 52 60
41 43 44 42 40 38 39 42 44 47 49 54 55 62 66 68 72 73 64 58 60 58 51 45 39 31 24 23 20 16 14 18 19 20 19 20 30 34 35 55 64 57 75
41 44 43 40 40 42 45 46 48 52 56 59 62 64 68 75 67 61 60 60 55 47 41 34 27 26 27 24 23 18 17 19 22 21 21 22 26 29 32 47 60 68 80
42 40 38 39 42 46 48 52 56 58 59 61 66 72 68 64 62 62 57 51 44 40 34 30 33 33 29 28 25 23 22 21 25 27 27 28 29 30 32 52 53 74 88
40 39 40 41 43 48 53 57 58 61 69 70 72 68 67 64 60 55 50 44 41 36 33 34 34 33 30 28 24 21 22 24 28 31 34 36 34 34 37 51 62 79 88
44 46 48 51 54 55 56 60 66 69 71 72 72 68 61 57 53 48 46 42 38 35 33 34 34 31 29 26 22 21 22 25 28 30 34 42 50 51 60 65 75 87 87
52 56 58 60 63 66 70 72 74 74 71 70 64 59 57 54 51 48 46 42 40 37 35 31 26 24 23 22 20 20 22 24 26 30 39 45 55 62 69 77 84 88 89

GFSMW_prec_cthk_075.txt.gz
RH
64 65 59 57 55 53 58 69 89 79 71 61 59 61 68 71 72 80 79 78 83 85 64 59 55 50 44 40 37 39 43 46 49 46 46 46 46 47 47 44 44 42 44
54 55 57 61 62 62 61 67 77 78 70 65 62 64 69 68 75 77 76 84 92 81 70 60 54 48 42 39 40 46 51 53 52 54 54 55 54 49 42 38 42 46 48
45 50 52 54 58 56 56 61 68 77 74 75 66 66 68 71 69 79 82 82 87 75 70 59 53 46 43 44 46 54 59 63 63 62 65 62 57 49 46 43 44 50 51
38 42 46 46 47 50 50 56 64 73 74 74 72 71 72 75 76 75 75 82 92 85 78 71 57 51 49 52 55 59 67 69 70 68 69 68 59 56 50 52 53 54 54
47 42 36 40 43 45 46 50 56 59 61 61 67 68 70 74 81 77 79 88 92 93 86 76 60 58 59 59 59 66 73 73 76 79 72 70 65 58 57 54 58 58 55
56 54 49 48 48 47 50 54 60 66 65 62 62 65 67 72 78 80 83 86 82 86 87 75 70 63 66 63 67 72 75 76 75 77 80 75 67 61 58 60 59 55 53
58 58 54 55 54 54 53 56 59 62 70 65 67 71 69 74 80 82 81 82 83 90 90 76 70 71 69 72 74 79 78 79 80 78 68 63 57 59 63 60 55 56 46
54 54 56 59 54 55 53 59 62 61 68 67 73 80 84 84 77 62 71 80 82 87 87 77 73 80 76 81 82 86 86 89 85 77 63 59 61 64 63 59 59 47 37
43 51 56 60 59 58 54 57 59 59 62 70 75 80 80 79 69 64 64 71 80 89 86 80 83 86 86 86 91 97 94 86 80 74 67 63 69 66 61 61 50 44 38
42 43 47 52 57 57 55 56 56 56 60 67 68 71 71 65 66 64 69 79 88 94 91 87 89 87 92 97 97 95 87 85 85 78 67 69 69 64 62 51 49 44 39
37 43 45 46 51 53 53 53 56 57 58 64 64 63 68 66 71 74 76 81 90 98 94 94 95 98 98 97 97 93 90 91 85 76 70 72 69 66 50 43 43 40 38
33 34 33 34 37 42 47 51 55 61 62 63 65 72 72 73 74 74 77 89 98 99 98 98 94 95 97 96 95 94 91 89 83 76 74 68 63 50 38 36 38 37 38
36 35 32 31 35 40 46 51 57 64 71 72 68 71 73 68 71 80 86 88 90 98 96 97 98 98 97 95 94 92 87 83 75 71 66 57 44 36 34 34 37 38 40
30 35 34 30 33 36 41 50 56 60 63 59 62 66 63 68 80 84 83 80 85 83 96 97 94 97 94 89 91 90 84 71 63 58 51 43 35 33 32 31 36 41 44
28 25 32 38 37 38 41 46 51 58 60 59 61 67 72 79 84 88 84 72 78 78 79 69 77 80 69 70 72 69 63 54 50 45 41 35 33 33 31 32 31 34 35
29 27 27 39 44 47 51 54 54 56 57 58 65 73 79 83 83 81 73 71 73 74 70 76 64 67 70 69 61 51 44 46 41 35 32 32 33 35 38 40 41 41 40
29 29 31 35 40 48 49 53 56 60 67 75 76 79 79 82 80 74 72 71 70 70 64 64 69 71 67 58 51 47 43 38 34 30 29 31 31 32 37 40 41 47 52
28 28 29 34 40 43 45 49 57 68 72 77 77 77 77 72 73 69 67 66 65 65 68 71 69 63 56 54 50 44 38 32 33 32 32 34 33 34 41 42 42 46 48
29 31 39 44 48 50 53 59 64 68 70 70 69 67 68 68 66 66 66 63 68 69 73 67 61 58 59 56 47 40 35 35 32 30 27 26 28 28 31 33 37 36 30
32 35 38 43 46 48 48 49 51 54 55 55 56 58 58 60 59 58 64 66 69 66 62 61 61 58 52 49 44 38 36 29 25 23 24 23 22 21 20 25 30 36 42
32 35 38 42 45 48 51 49 45 43 44 44 48 51 53 55 61 65 65 65 61 63 64 61 54 48 45 42 38 34 30 28 24 20 21 24 24 24 24 25 27 28 34
32 36 39 42 44 43 41 40 41 42 45 48 50 55 57 62 66 68 65 64 64 65 62 53 47 48 46 45 42 39 33 27 24 24 26 28 26 25 27 28 28 31 31
32 34 37 40 40 39 40 42 45 48 51 54 58 59 62 67 67 66 68 66 62 60 57 52 52 50 47 47 45 41 29 25 24 24 26 26 25 28 33 32 34 34 37
35 36 39 41 41 43 47 49 51 54 60 61 62 67 71 70 69 68 65 60 59 55 52 54 52 52 50 48 43 32 28 27 27 28 27 28 34 45 47 46 51 49 50
44 45 46 46 47 50 54 57 61 67 67 68 70 73 71 70 65 62 57 56 53 51 47 48 46 47 44 46 36 32 31 31 30 30 33 40 40 40 41 48 60 63 64
51 53 56 59 62 66 69 70 72 74 76 77 76 74 72 68 66 63 59 55 53 49 48 47 47 45 43 39 36 35 34 34 33 34 45 40 36 38 42 47 53 68 76